N604PS KBNA-KCLE

Flight info

Callsign N604PS
Flight time 1h 17m
Altitude 41000
Route KRSTA4 OLSIE IIU DRUGA ROKNN4
Aircraft CL60/M-SBDE1E2E3FGHIJ1J4J5J7M3RWXYZ/LB1V1D1

Departure

Time 2026-05-05 02:41
Airport Nashville International Airport (KBNA)

Arrival

Time 2026-05-05 03:59
Airport Cleveland Hopkins International Airport (KCLE)
Time Latitude Longitude Altitude Speed Heading
2026-05-05 02:02 36.12658 -86.69180 607 ft 0 kts
2026-05-05 02:24 36.12656 -86.69180 607 ft 1 kts
2026-05-05 02:24 36.12636 -86.69191 607 ft 4 kts
2026-05-05 02:24 36.12607 -86.69190 607 ft 7 kts 116°
2026-05-05 02:25 36.12597 -86.69111 607 ft 10 kts 97°
2026-05-05 02:25 36.12587 -86.69017 607 ft 10 kts 97°
2026-05-05 02:25 36.12578 -86.68929 607 ft 8 kts 97°
2026-05-05 02:25 36.12583 -86.68851 607 ft 7 kts 68°
2026-05-05 02:26 36.12607 -86.68771 607 ft 10 kts 87°
2026-05-05 02:26 36.12589 -86.68688 607 ft 9 kts 107°
2026-05-05 02:26 36.12571 -86.68618 607 ft 7 kts 108°
2026-05-05 02:26 36.12554 -86.68553 607 ft 7 kts 103°
2026-05-05 02:27 36.12571 -86.68494 607 ft 8 kts 26°
2026-05-05 02:27 36.12640 -86.68466 607 ft 10 kts 18°
2026-05-05 02:27 36.12710 -86.68438 607 ft 11 kts 17°
2026-05-05 02:27 36.12795 -86.68405 607 ft 12 kts 18°
2026-05-05 02:28 36.12873 -86.68374 607 ft 11 kts 18°
2026-05-05 02:28 36.12939 -86.68348 607 ft 11 kts 17°
2026-05-05 02:28 36.13025 -86.68314 607 ft 10 kts 17°
2026-05-05 02:28 36.13050 -86.68305 607 ft 0 kts 17°
2026-05-05 02:29 36.13067 -86.68298 607 ft 9 kts 17°
2026-05-05 02:29 36.13136 -86.68271 607 ft 11 kts 17°
2026-05-05 02:29 36.13203 -86.68244 607 ft 9 kts 17°
2026-05-05 02:29 36.13263 -86.68220 607 ft 6 kts 29°
2026-05-05 02:30 36.13272 -86.68158 607 ft 10 kts 127°
2026-05-05 02:30 36.13220 -86.68088 607 ft 10 kts 133°
2026-05-05 02:30 36.13165 -86.68017 607 ft 12 kts 133°
2026-05-05 02:30 36.13107 -86.67939 607 ft 11 kts 133°
2026-05-05 02:31 36.13052 -86.67869 607 ft 12 kts 134°
2026-05-05 02:31 36.12993 -86.67792 607 ft 13 kts 133°
2026-05-05 02:31 36.12923 -86.67701 607 ft 13 kts 133°
2026-05-05 02:31 36.12864 -86.67623 607 ft 12 kts 133°
2026-05-05 02:32 36.12806 -86.67547 607 ft 10 kts 132°
2026-05-05 02:32 36.12747 -86.67469 607 ft 12 kts 133°
2026-05-05 02:32 36.12688 -86.67393 606 ft 10 kts 133°
2026-05-05 02:32 36.12635 -86.67323 606 ft 12 kts 133°
2026-05-05 02:33 36.12595 -86.67271 606 ft 12 kts 133°
2026-05-05 02:33 36.12536 -86.67193 606 ft 11 kts 133°
2026-05-05 02:33 36.12479 -86.67119 606 ft 10 kts 133°
2026-05-05 02:33 36.12435 -86.67062 606 ft 9 kts 133°
2026-05-05 02:34 36.12383 -86.66995 606 ft 11 kts 133°
2026-05-05 02:34 36.12330 -86.66926 606 ft 10 kts 134°
2026-05-05 02:34 36.12296 -86.66867 606 ft 9 kts 114°
2026-05-05 02:34 36.12269 -86.66773 606 ft 12 kts 109°
2026-05-05 02:35 36.12245 -86.66685 606 ft 11 kts 107°
2026-05-05 02:35 36.12225 -86.66607 606 ft 8 kts 108°
2026-05-05 02:35 36.12225 -86.66539 606 ft 7 kts 57°
2026-05-05 02:35 36.12280 -86.66503 606 ft 11 kts 18°
2026-05-05 02:36 36.12365 -86.66468 606 ft 14 kts 18°
2026-05-05 02:36 36.12464 -86.66429 606 ft 11 kts 18°
2026-05-05 02:36 36.12543 -86.66397 606 ft 12 kts 18°
2026-05-05 02:36 36.12624 -86.66365 606 ft 12 kts 18°
2026-05-05 02:37 36.12703 -86.66333 606 ft 12 kts 17°
2026-05-05 02:37 36.12778 -86.66303 606 ft 12 kts 17°
2026-05-05 02:37 36.12857 -86.66271 606 ft 11 kts 18°
2026-05-05 02:37 36.12939 -86.66239 606 ft 10 kts 18°
2026-05-05 02:38 36.13013 -86.66209 606 ft 10 kts 18°
2026-05-05 02:38 36.13094 -86.66177 606 ft 13 kts 17°
2026-05-05 02:38 36.13175 -86.66144 606 ft 11 kts 18°
2026-05-05 02:38 36.13248 -86.66115 606 ft 10 kts 17°
2026-05-05 02:39 36.13322 -86.66086 606 ft 9 kts 17°
2026-05-05 02:39 36.13372 -86.66060 606 ft 4 kts 46°
2026-05-05 02:39 36.13378 -86.66045 606 ft 0 kts 84°
2026-05-05 02:40 36.13378 -86.66036 606 ft 2 kts 93°
2026-05-05 02:40 36.13369 -86.65995 606 ft 6 kts 109°
2026-05-05 02:40 36.13347 -86.65949 606 ft 8 kts 151°
2026-05-05 02:40 36.13297 -86.65952 606 ft 0 kts
2026-05-05 02:41 36.13297 -86.65953 606 ft 0 kts
2026-05-05 02:41 36.12986 -86.66077 606 ft 108 kts
2026-05-05 02:41 36.12015 -86.66489 1028 ft 169 kts
2026-05-05 02:41 36.10928 -86.67092 2333 ft 187 kts
2026-05-05 02:42 36.09759 -86.67867 3415 ft 194 kts
2026-05-05 02:42 36.08667 -86.68817 3912 ft 189 kts
2026-05-05 02:42 36.07854 -86.70057 4255 ft 187 kts
2026-05-05 02:42 36.07380 -86.71610 4444 ft 186 kts
2026-05-05 02:43 36.07076 -86.73149 4791 ft 187 kts
2026-05-05 02:43 36.07075 -86.74782 5083 ft 191 kts
2026-05-05 02:43 36.07302 -86.76420 5630 ft 194 kts
2026-05-05 02:43 36.07528 -86.78099 6168 ft 197 kts
2026-05-05 02:44 36.07753 -86.79775 6679 ft 200 kts
2026-05-05 02:44 36.07981 -86.81487 6909 ft 203 kts
2026-05-05 02:44 36.08211 -86.83212 6935 ft 202 kts
2026-05-05 02:44 36.08595 -86.84914 6933 ft 215 kts
2026-05-05 02:45 36.09585 -86.86451 6925 ft 237 kts
2026-05-05 02:45 36.11146 -86.87254 6921 ft 252 kts
2026-05-05 02:45 36.12920 -86.86984 6930 ft 260 kts 11°
2026-05-05 02:45 36.14694 -86.86443 6929 ft 262 kts 10°
2026-05-05 02:46 36.16483 -86.85912 6935 ft 262 kts 10°
2026-05-05 02:46 36.18282 -86.85381 6936 ft 262 kts 11°
2026-05-05 02:46 36.20080 -86.84850 6929 ft 263 kts 10°
2026-05-05 02:46 36.21837 -86.84332 7247 ft 257 kts 10°
2026-05-05 02:47 36.23611 -86.83811 7787 ft 262 kts
2026-05-05 02:47 36.25417 -86.83282 8316 ft 265 kts 10°
2026-05-05 02:47 36.27244 -86.82745 8849 ft 265 kts
2026-05-05 02:47 36.29132 -86.82191 9404 ft 265 kts 10°
2026-05-05 02:48 36.31006 -86.81641 9955 ft 265 kts
2026-05-05 02:48 36.32887 -86.81072 10496 ft 267 kts 14°
2026-05-05 02:48 36.34571 -86.79956 11005 ft 282 kts 39°
2026-05-05 02:48 36.36034 -86.78046 11564 ft 319 kts 47°
2026-05-05 02:49 36.37636 -86.75801 12095 ft 345 kts 47°
2026-05-05 02:49 36.39319 -86.73449 12621 ft 351 kts 47°
2026-05-05 02:49 36.41038 -86.71046 13176 ft 353 kts 47°
2026-05-05 02:49 36.42750 -86.68654 13730 ft 356 kts 46°
2026-05-05 02:50 36.44482 -86.66235 14289 ft 358 kts 46°
2026-05-05 02:50 36.46223 -86.63805 14850 ft 360 kts 46°
2026-05-05 02:50 36.47977 -86.61354 15420 ft 362 kts 46°
2026-05-05 02:50 36.49749 -86.58881 15980 ft 366 kts 46°
2026-05-05 02:51 36.51525 -86.56401 16547 ft 368 kts 46°
2026-05-05 02:51 36.53320 -86.53893 17090 ft 371 kts 46°
2026-05-05 02:51 36.55123 -86.51373 17637 ft 372 kts 46°
2026-05-05 02:51 36.56948 -86.48857 18185 ft 374 kts 42°
2026-05-05 02:52 36.59110 -86.46866 18778 ft 370 kts 23°
2026-05-05 02:52 36.61613 -86.45512 19329 ft 374 kts 18°
2026-05-05 02:52 36.64184 -86.44191 19887 ft 384 kts 18°
2026-05-05 02:52 36.66825 -86.42832 20447 ft 398 kts 18°
2026-05-05 02:53 36.69483 -86.41542 21321 ft 399 kts 14°
2026-05-05 02:53 36.72218 -86.40492 22353 ft 396 kts 11°
2026-05-05 02:53 36.74891 -86.39184 23057 ft 406 kts 23°
2026-05-05 02:53 36.77504 -86.37381 23602 ft 410 kts 25°
2026-05-05 02:54 36.80111 -86.35537 24157 ft 409 kts 25°
2026-05-05 02:54 36.82684 -86.33702 24708 ft 408 kts 26°
2026-05-05 02:54 36.85268 -86.31869 25265 ft 408 kts 25°
2026-05-05 02:54 36.87858 -86.30098 25810 ft 409 kts 23°
2026-05-05 02:55 36.90514 -86.28356 26367 ft 412 kts 23°
2026-05-05 02:55 36.93181 -86.26610 26921 ft 415 kts 24°
2026-05-05 02:55 36.95899 -86.24831 27475 ft 418 kts 23°
2026-05-05 02:55 36.98598 -86.23066 28029 ft 421 kts 23°
2026-05-05 02:56 37.01315 -86.21290 28585 ft 423 kts 23°
2026-05-05 02:56 37.04059 -86.19495 29138 ft 426 kts 23°
2026-05-05 02:56 37.06813 -86.17692 29695 ft 427 kts 22°
2026-05-05 02:56 37.09577 -86.15884 30254 ft 428 kts 23°
2026-05-05 02:57 37.12256 -86.14130 30802 ft 429 kts 22°
2026-05-05 02:57 37.14913 -86.12390 31333 ft 429 kts 22°
2026-05-05 02:57 37.17453 -86.10726 31846 ft 429 kts 22°
2026-05-05 02:57 37.20170 -86.08945 32388 ft 428 kts 22°
2026-05-05 02:58 37.22782 -86.07238 32924 ft 426 kts 21°
2026-05-05 02:58 37.25563 -86.05611 33475 ft 422 kts 18°
2026-05-05 02:58 37.28354 -86.04054 34025 ft 420 kts 18°
2026-05-05 02:58 37.31116 -86.02510 34575 ft 418 kts 18°
2026-05-05 02:59 37.33861 -86.00974 35096 ft 413 kts 18°
2026-05-05 02:59 37.36580 -85.99451 35637 ft 408 kts 17°
2026-05-05 02:59 37.39288 -85.97933 36135 ft 403 kts 17°
2026-05-05 02:59 37.41937 -85.96447 36648 ft 399 kts 17°
2026-05-05 03:00 37.44576 -85.94967 37133 ft 397 kts 17°
2026-05-05 03:00 37.47176 -85.93507 37575 ft 395 kts 17°
2026-05-05 03:00 37.49811 -85.92027 38039 ft 391 kts 17°
2026-05-05 03:00 37.52384 -85.90579 38522 ft 387 kts 17°
2026-05-05 03:01 37.54913 -85.89156 38975 ft 383 kts 17°
2026-05-05 03:01 37.57400 -85.87754 39421 ft 378 kts 17°
2026-05-05 03:01 37.59828 -85.86384 39860 ft 373 kts 16°
2026-05-05 03:01 37.62246 -85.85019 40312 ft 365 kts 16°
2026-05-05 03:02 37.64647 -85.83662 40749 ft 359 kts 16°
2026-05-05 03:02 37.67022 -85.82324 40870 ft 362 kts 16°
2026-05-05 03:02 37.69427 -85.80971 40877 ft 367 kts 16°
2026-05-05 03:03 37.74345 -85.78196 40882 ft 379 kts 16°
2026-05-05 03:03 37.79408 -85.75331 40882 ft 390 kts 17°
2026-05-05 03:04 37.84537 -85.72459 40889 ft 399 kts 15°
2026-05-05 03:04 37.89808 -85.69514 40885 ft 408 kts 18°
2026-05-05 03:05 37.95115 -85.66462 40879 ft 416 kts 18°
2026-05-05 03:05 38.00473 -85.63384 40865 ft 420 kts 18°
2026-05-05 03:06 38.05896 -85.60265 40870 ft 420 kts 18°
2026-05-05 03:06 38.11098 -85.56931 40857 ft 426 kts 27°
2026-05-05 03:07 38.15861 -85.52382 40850 ft 429 kts 31°
2026-05-05 03:07 38.20583 -85.47775 40857 ft 428 kts 31°
2026-05-05 03:08 38.25324 -85.43146 40854 ft 428 kts 31°
2026-05-05 03:08 38.30162 -85.38418 40853 ft 427 kts 32°
2026-05-05 03:09 38.35008 -85.33676 40853 ft 428 kts 32°
2026-05-05 03:09 38.39702 -85.29078 40838 ft 428 kts 32°
2026-05-05 03:10 38.44512 -85.24359 40851 ft 429 kts 32°
2026-05-05 03:10 38.49371 -85.19584 40849 ft 430 kts 32°
2026-05-05 03:11 38.54258 -85.14773 40848 ft 430 kts 33°
2026-05-05 03:11 38.59106 -85.09993 40855 ft 430 kts 33°
2026-05-05 03:12 38.63968 -85.05192 40851 ft 429 kts 33°
2026-05-05 03:12 38.68795 -85.00417 40848 ft 429 kts 33°
2026-05-05 03:13 38.73556 -84.95699 40851 ft 429 kts 33°
2026-05-05 03:13 38.78299 -84.90991 40854 ft 429 kts 33°
2026-05-05 03:14 38.83070 -84.86248 40776 ft 432 kts 33°
2026-05-05 03:14 38.85482 -84.83850 40316 ft 439 kts 33°
2026-05-05 03:14 38.87917 -84.81423 39737 ft 439 kts 34°
2026-05-05 03:14 38.90329 -84.79015 39219 ft 435 kts 33°
2026-05-05 03:15 38.92714 -84.76631 38722 ft 430 kts 33°
2026-05-05 03:15 38.95067 -84.74277 38219 ft 426 kts 33°
2026-05-05 03:15 38.97419 -84.71924 37715 ft 427 kts 33°
2026-05-05 03:15 38.99770 -84.69571 37223 ft 428 kts 33°
2026-05-05 03:16 39.02130 -84.67206 36719 ft 429 kts 33°
2026-05-05 03:16 39.04487 -84.64842 36256 ft 429 kts 33°
2026-05-05 03:16 39.06874 -84.62446 35779 ft 430 kts 33°
2026-05-05 03:16 39.09270 -84.60038 35271 ft 431 kts 33°
2026-05-05 03:17 39.11664 -84.57630 34762 ft 431 kts 33°
2026-05-05 03:17 39.14063 -84.55213 34238 ft 431 kts 32°
2026-05-05 03:17 39.16419 -84.52838 33733 ft 431 kts 33°
2026-05-05 03:17 39.18811 -84.50427 33222 ft 432 kts 33°
2026-05-05 03:18 39.21203 -84.48013 32715 ft 431 kts 33°
2026-05-05 03:18 39.23545 -84.45645 32217 ft 429 kts 33°
2026-05-05 03:18 39.25915 -84.43248 31711 ft 425 kts 33°
2026-05-05 03:18 39.28278 -84.40854 31204 ft 422 kts 33°
2026-05-05 03:19 39.32920 -84.36148 30181 ft 415 kts 33°
2026-05-05 03:19 39.35196 -84.33838 29670 ft 411 kts 34°
2026-05-05 03:19 39.37443 -84.31557 29173 ft 409 kts 34°
2026-05-05 03:20 39.39589 -84.29376 28687 ft 407 kts 34°
2026-05-05 03:20 39.41855 -84.27073 28174 ft 404 kts 34°
2026-05-05 03:20 39.44119 -84.24769 27661 ft 402 kts 34°
2026-05-05 03:20 39.46378 -84.22467 27140 ft 399 kts 34°
2026-05-05 03:21 39.48637 -84.20164 26622 ft 396 kts 35°
2026-05-05 03:21 39.50865 -84.17890 26107 ft 393 kts 35°
2026-05-05 03:21 39.53091 -84.15617 25591 ft 391 kts 35°
2026-05-05 03:21 39.55251 -84.13409 25081 ft 388 kts 35°
2026-05-05 03:22 39.57384 -84.11227 24569 ft 385 kts 35°
2026-05-05 03:22 39.59488 -84.09074 24066 ft 382 kts 35°
2026-05-05 03:22 39.61592 -84.06918 23560 ft 379 kts 36°
2026-05-05 03:22 39.63681 -84.04776 23055 ft 376 kts 36°
2026-05-05 03:23 39.65748 -84.02655 22555 ft 373 kts 35°
2026-05-05 03:23 39.67867 -84.00479 22032 ft 371 kts 35°
2026-05-05 03:23 39.69958 -83.98282 21512 ft 370 kts 37°
2026-05-05 03:23 39.72006 -83.96039 20988 ft 367 kts 38°
2026-05-05 03:24 39.74039 -83.93783 20460 ft 365 kts 38°
2026-05-05 03:24 39.76063 -83.91538 19933 ft 363 kts 38°
2026-05-05 03:24 39.78078 -83.89302 19415 ft 361 kts 38°
2026-05-05 03:24 39.80048 -83.87116 18980 ft 357 kts 38°
2026-05-05 03:25 39.82005 -83.84944 18812 ft 356 kts 38°
2026-05-05 03:25 39.83971 -83.82761 18795 ft 358 kts 38°
2026-05-05 03:25 39.85961 -83.80550 18774 ft 358 kts 38°
2026-05-05 03:25 39.87938 -83.78352 18798 ft 359 kts 38°
2026-05-05 03:26 39.89919 -83.76147 18800 ft 364 kts 38°
2026-05-05 03:26 39.91970 -83.73866 18801 ft 375 kts 38°
2026-05-05 03:26 39.94068 -83.71528 18809 ft 380 kts 38°
2026-05-05 03:26 39.96184 -83.69167 18797 ft 380 kts 38°
2026-05-05 03:27 39.98292 -83.66811 18790 ft 380 kts 38°
2026-05-05 03:27 40.00401 -83.64455 18793 ft 380 kts 38°
2026-05-05 03:27 40.02500 -83.62107 18800 ft 380 kts 38°
2026-05-05 03:27 40.04609 -83.59748 18802 ft 380 kts 38°
2026-05-05 03:28 40.06716 -83.57388 18738 ft 381 kts 38°
2026-05-05 03:28 40.08837 -83.55010 18428 ft 382 kts 39°
2026-05-05 03:28 40.10918 -83.52675 18095 ft 378 kts 38°
2026-05-05 03:28 40.12974 -83.50367 17754 ft 376 kts 39°
2026-05-05 03:29 40.14828 -83.48284 17443 ft 375 kts 38°
2026-05-05 03:29 40.16742 -83.46134 17136 ft 373 kts 38°
2026-05-05 03:29 40.18739 -83.43845 16831 ft 371 kts 39°
2026-05-05 03:29 40.20534 -83.41676 16782 ft 369 kts 41°
2026-05-05 03:30 40.22474 -83.39247 16797 ft 371 kts 41°
2026-05-05 03:30 40.24443 -83.36777 16793 ft 372 kts 41°
2026-05-05 03:30 40.26390 -83.34335 16795 ft 372 kts 42°
2026-05-05 03:30 40.28311 -83.31924 16795 ft 372 kts 42°
2026-05-05 03:31 40.30250 -83.29491 16793 ft 373 kts 42°
2026-05-05 03:31 40.32184 -83.27064 16789 ft 373 kts 42°
2026-05-05 03:31 40.34137 -83.24611 16790 ft 373 kts 42°
2026-05-05 03:31 40.36096 -83.22150 16788 ft 373 kts 42°
2026-05-05 03:32 40.38060 -83.19681 16795 ft 372 kts 42°
2026-05-05 03:32 40.40016 -83.17221 16810 ft 372 kts 42°
2026-05-05 03:32 40.41989 -83.14738 16799 ft 372 kts 42°
2026-05-05 03:32 40.43948 -83.12270 16805 ft 372 kts 42°
2026-05-05 03:33 40.45899 -83.09813 16812 ft 372 kts 42°
2026-05-05 03:33 40.47851 -83.07351 16775 ft 373 kts 42°
2026-05-05 03:33 40.49811 -83.04888 16763 ft 372 kts 41°
2026-05-05 03:33 40.51776 -83.02428 16786 ft 372 kts 42°
2026-05-05 03:34 40.53736 -82.99973 16783 ft 372 kts 42°
2026-05-05 03:34 40.55658 -82.97564 16768 ft 372 kts 42°
2026-05-05 03:34 40.57584 -82.95148 16650 ft 375 kts 42°
2026-05-05 03:34 40.59551 -82.92676 16176 ft 370 kts 41°
2026-05-05 03:35 40.61489 -82.90239 15669 ft 364 kts 41°
2026-05-05 03:35 40.63387 -82.87851 15112 ft 359 kts 41°
2026-05-05 03:35 40.65239 -82.85521 14596 ft 352 kts 41°
2026-05-05 03:35 40.67019 -82.83278 14071 ft 341 kts 41°
2026-05-05 03:36 40.68747 -82.81100 13566 ft 332 kts 41°
2026-05-05 03:36 40.70411 -82.79003 13053 ft 325 kts 41°
2026-05-05 03:36 40.72068 -82.76914 12550 ft 319 kts 40°
2026-05-05 03:36 40.73738 -82.74807 12028 ft 314 kts 40°
2026-05-05 03:37 40.75384 -82.72729 11514 ft 308 kts 40°
2026-05-05 03:37 40.77000 -82.70688 11007 ft 306 kts 40°
2026-05-05 03:37 40.78618 -82.68645 10465 ft 307 kts 40°
2026-05-05 03:37 40.80245 -82.66588 9962 ft 305 kts 40°
2026-05-05 03:38 40.81832 -82.64578 9788 ft 300 kts 40°
2026-05-05 03:38 40.83429 -82.62557 9779 ft 303 kts 40°
2026-05-05 03:38 40.85015 -82.60547 9776 ft 305 kts 39°
2026-05-05 03:38 40.86619 -82.58511 9775 ft 305 kts 40°
2026-05-05 03:39 40.88218 -82.56479 9772 ft 305 kts 39°
2026-05-05 03:39 40.89808 -82.54459 9771 ft 305 kts 39°
2026-05-05 03:39 40.91401 -82.52431 9856 ft 304 kts 39°
2026-05-05 03:39 40.93004 -82.50392 9968 ft 306 kts 39°
2026-05-05 03:40 40.94599 -82.48360 9984 ft 307 kts 39°
2026-05-05 03:40 40.96216 -82.46300 9992 ft 305 kts 40°
2026-05-05 03:40 40.97828 -82.44245 10034 ft 306 kts 39°
2026-05-05 03:40 40.99411 -82.42225 10013 ft 307 kts 39°
2026-05-05 03:41 41.00993 -82.40205 9892 ft 308 kts 39°
2026-05-05 03:41 41.02573 -82.38186 9553 ft 308 kts 39°
2026-05-05 03:41 41.04168 -82.36145 9182 ft 305 kts 39°
2026-05-05 03:41 41.05712 -82.34151 8812 ft 303 kts 41°
2026-05-05 03:42 41.07188 -82.32206 8458 ft 300 kts 41°
2026-05-05 03:42 41.08686 -82.30228 8122 ft 297 kts 41°
2026-05-05 03:42 41.10049 -82.28428 8003 ft 289 kts 41°
2026-05-05 03:42 41.11476 -82.26545 7999 ft 289 kts 41°
2026-05-05 03:43 41.12751 -82.24863 7993 ft 288 kts 41°
2026-05-05 03:43 41.14151 -82.23015 8010 ft 289 kts 41°
2026-05-05 03:43 41.15580 -82.21126 8007 ft 289 kts 41°
2026-05-05 03:43 41.16713 -82.19628 7992 ft 289 kts 41°
2026-05-05 03:44 41.18137 -82.17743 7985 ft 288 kts 41°
2026-05-05 03:44 41.19333 -82.16159 8013 ft 288 kts 41°
2026-05-05 03:44 41.20715 -82.14328 8013 ft 288 kts 41°
2026-05-05 03:44 41.22163 -82.12407 7983 ft 288 kts 41°
2026-05-05 03:45 41.23566 -82.10544 7996 ft 281 kts 41°
2026-05-05 03:45 41.24947 -82.08710 8010 ft 279 kts 41°
2026-05-05 03:45 41.26313 -82.06895 8008 ft 277 kts 40°
2026-05-05 03:45 41.27683 -82.05075 7998 ft 276 kts 40°
2026-05-05 03:46 41.29067 -82.03300 7999 ft 274 kts 33°
2026-05-05 03:46 41.30654 -82.02030 7995 ft 260 kts 21°
2026-05-05 03:46 41.32257 -82.00916 7737 ft 259 kts 21°
2026-05-05 03:46 41.33855 -81.99796 7411 ft 259 kts 21°
2026-05-05 03:47 41.35450 -81.98677 7093 ft 258 kts 21°
2026-05-05 03:47 41.37094 -81.97518 6988 ft 246 kts 20°
2026-05-05 03:47 41.38586 -81.96460 7000 ft 230 kts 20°
2026-05-05 03:47 41.39989 -81.95471 7009 ft 225 kts 19°
2026-05-05 03:48 41.41388 -81.94492 6997 ft 228 kts 20°
2026-05-05 03:48 41.42795 -81.93504 6883 ft 229 kts 20°
2026-05-05 03:48 41.44242 -81.92485 6501 ft 228 kts 20°
2026-05-05 03:48 41.45698 -81.91458 6080 ft 225 kts 20°
2026-05-05 03:49 41.47104 -81.90464 5698 ft 221 kts 20°
2026-05-05 03:49 41.48494 -81.89481 5317 ft 218 kts 19°
2026-05-05 03:49 41.49888 -81.88496 4927 ft 215 kts 19°
2026-05-05 03:49 41.51245 -81.87440 4534 ft 217 kts 30°
2026-05-05 03:50 41.52498 -81.86143 4143 ft 217 kts 33°
2026-05-05 03:50 41.53744 -81.84833 3754 ft 216 kts 32°
2026-05-05 03:50 41.54979 -81.83530 3365 ft 214 kts 33°
2026-05-05 03:50 41.56067 -81.82026 3034 ft 213 kts 51°
2026-05-05 03:51 41.56965 -81.80338 2948 ft 212 kts 55°
2026-05-05 03:51 41.57819 -81.78687 2926 ft 199 kts 55°
2026-05-05 03:51 41.58494 -81.77007 3044 ft 200 kts 83°
2026-05-05 03:51 41.58320 -81.75242 2987 ft 169 kts 133°
2026-05-05 03:52 41.57566 -81.74252 2971 ft 139 kts 167°
2026-05-05 03:52 41.56670 -81.73850 2977 ft 125 kts
2026-05-05 03:52 41.55788 -81.73762 2984 ft 121 kts
2026-05-05 03:52 41.54947 -81.73713 2997 ft 120 kts
2026-05-05 03:53 41.54096 -81.73664 2989 ft 125 kts
2026-05-05 03:53 41.53218 -81.73611 2979 ft 125 kts
2026-05-05 03:53 41.52345 -81.73556 2996 ft 125 kts
2026-05-05 03:53 41.51449 -81.73500 3007 ft 126 kts
2026-05-05 03:54 41.50581 -81.73440 3078 ft 122 kts
2026-05-05 03:54 41.49731 -81.73382 3089 ft 120 kts
2026-05-05 03:54 41.48914 -81.73373 2988 ft 112 kts
2026-05-05 03:54 41.48252 -81.73768 2822 ft 100 kts
2026-05-05 03:55 41.47799 -81.74460 2695 ft 99 kts
2026-05-05 03:55 41.47444 -81.75256 2566 ft 101 kts
2026-05-05 03:55 41.47085 -81.76065 2433 ft 100 kts
2026-05-05 03:55 41.46689 -81.76827 2310 ft 101 kts
2026-05-05 03:56 41.46249 -81.77557 2171 ft 100 kts
2026-05-05 03:56 41.45780 -81.78270 2037 ft 103 kts
2026-05-05 03:56 41.45286 -81.78972 1874 ft 104 kts
2026-05-05 03:56 41.44808 -81.79700 1719 ft 103 kts
2026-05-05 03:57 41.44379 -81.80448 1744 ft 103 kts
2026-05-05 03:57 41.43912 -81.81202 1729 ft 106 kts
2026-05-05 03:57 41.43420 -81.81915 1571 ft 102 kts
2026-05-05 03:57 41.42975 -81.82630 1351 ft 98 kts
2026-05-05 03:58 41.42524 -81.83331 1135 ft 103 kts
2026-05-05 03:58 41.42076 -81.84043 976 ft 97 kts
2026-05-05 03:58 41.41649 -81.84722 799 ft 94 kts
2026-05-05 03:58 41.41244 -81.85355 779 ft 69 kts
2026-05-05 03:59 41.41082 -81.85618 776 ft 23 kts
2026-05-05 03:59 41.40966 -81.85804 775 ft 28 kts
2026-05-05 03:59 41.40835 -81.86011 774 ft 28 kts
2026-05-05 03:59 41.40745 -81.86151 773 ft 15 kts
2026-05-05 04:00 41.40683 -81.86221 771 ft 12 kts
2026-05-05 04:00 41.40601 -81.86258 771 ft 4 kts
2026-05-05 04:00 41.40599 -81.86259 771 ft 0 kts
2026-05-05 04:00 41.40580 -81.86258 771 ft 5 kts 167°
2026-05-05 04:01 41.40534 -81.86216 771 ft 9 kts 139°
2026-05-05 04:01 41.40476 -81.86153 772 ft 10 kts 140°
2026-05-05 04:01 41.40421 -81.86090 774 ft 11 kts 140°
2026-05-05 04:01 41.40357 -81.86018 775 ft 12 kts 139°
2026-05-05 04:02 41.40308 -81.85960 776 ft 6 kts 123°
2026-05-05 04:02 41.40319 -81.85903 777 ft 8 kts 45°
2026-05-05 04:02 41.40369 -81.85823 778 ft 13 kts 50°
2026-05-05 04:02 41.40431 -81.85724 779 ft 14 kts 50°
2026-05-05 04:03 41.40493 -81.85627 779 ft 14 kts 50°
2026-05-05 04:03 41.40544 -81.85546 780 ft 1 kts 56°
2026-05-05 04:03 41.40539 -81.85519 780 ft 5 kts 151°
2026-05-05 04:03 41.40486 -81.85495 781 ft 9 kts 162°
2026-05-05 04:04 41.40414 -81.85463 782 ft 10 kts 162°
2026-05-05 04:04 41.40337 -81.85429 783 ft 11 kts 161°
2026-05-05 04:04 41.40290 -81.85433 783 ft 6 kts
2026-05-05 04:04 41.40231 -81.85435 783 ft 10 kts
2026-05-05 04:05 41.40176 -81.85459 783 ft 5 kts
2026-05-05 04:05 41.40127 -81.85469 783 ft 8 kts
2026-05-05 04:05 41.40091 -81.85439 783 ft 4 kts 85°
2026-05-05 04:05 41.40128 -81.85416 783 ft 7 kts
2026-05-05 04:06 41.40137 -81.85416 783 ft 0 kts